{"data":{"norad_id":45751,"intl_designator":"2020-038X","name":"STARLINK-1464","alt_names":[],"object_type":"PAYLOAD","status":"ACTIVE","operator":null,"country":"US","launch_date":"2020-06-13","launch_site_code":"AFETR","launch_vehicle":null,"mission":null,"orbit_class":"UNKNOWN","rcs_meters":null,"size_class":null,"mass_kg":null,"dimensions":null,"purposes":["comms"],"wikipedia_slug":null,"has_3d_model":false,"image_url":null,"decayed_at":null,"tle_current":{"epoch":"2026-09-19T23:04:09.803712Z","epoch_age_seconds":57492,"freshness":"FRESH","line1":"1 45751U 20038X   26262.96122458  .00070435  00000+0  51707-3 0  9991","line2":"2 45751  53.0433 345.6877 0002134  51.3045 308.8163 15.72502782346876","mean_motion":15.72502782,"eccentricity":0.0002134,"inclination_deg":53.0433,"raan_deg":345.6877,"arg_perigee_deg":51.3045,"mean_anomaly_deg":308.8163,"bstar":0.00051707,"rev_number":34687,"period_min":91.573764859641,"perigee_km":350.31055055253,"apogee_km":353.18286491899,"semimajor_km":6729.8837077358,"source":"CELESTRAK","updated_at":"2026-09-20T09:00:38.456921Z"}}}